Home > Weather > El Monte > Past weeks

Flag for USA Weather for the Past 2 Weeks in El Monte, California, USA

Now
57 °F

Passing clouds.


Feels Like: 57 °F
Forecast: 55 / 79 °F
Wind: No wind

Location: Fullerton Municipal Airport

Current Time: May 2, 2016 at 6:11:29 AM

Latest Report: May 2, 2016 at 4:53 AM


Visibility: 10 mi

Pressure: 29.98 "Hg

Humidity: 81%

Dew Point: 51 °F

Location of El MonteLocation

Historic Weather in El Monte — Graph

°F

El Monte Temperature Yesterday

Maximum temperature yesterday: 72 °F (at 3:53 PM)
Minimum temperature yesterday: 58 °F (at 2:53 AM)
Average temperature yesterday: 64 °F

High & Low Weather Summary for the Past Weeks

 TemperatureHumidityPressure
High91 °F (Apr 17, 12:53 PM)90% (Apr 30, 7:04 AM)30.05 "Hg (Apr 30, 7:04 AM)
Low52 °F (Apr 26, 4:53 AM)5% (Apr 17, 12:53 PM)29.73 "Hg (Apr 27, 11:53 PM)
Average67 °F49%29.91 "Hg
* Reported Apr 17 4:53 AM — May 2 4:53 AM, El Monte, Weather by CustomWeather, © 2016

Note: Actual official high and low records may vary slightly from our data, if they occured in-between our weather recording intervals... More about our weather records

Advertising

El Monte Weather History for the Previous 24 Hours

Scroll right to see more
 ConditionsComfort  
Time TempWeatherWind HumidityBarometerVisibility
4:53 AM
Mon, May 2
57 °FPassing clouds.No wind81%29.98 "Hg10 mi
3:53 AM58 °FPassing clouds.3 mph81%29.99 "Hg10 mi
3:04 AM58 °FPartly cloudy.No wind81%29.99 "Hg10 mi
1:53 AM59 °FPassing clouds.No wind78%29.99 "Hg10 mi
12:53 AM60 °FMostly cloudy.No wind78%30.00 "Hg10 mi
11:53 PM
Sun, May 1
60 °FOvercast.5 mph75%30.00 "Hg10 mi
10:53 PM60 °FPassing clouds.3 mph78%30.00 "Hg10 mi
9:53 PM61 °FClear.3 mph75%29.99 "Hg10 mi
8:53 PM62 °FClear.5 mph70%29.96 "Hg10 mi
7:53 PM63 °FSunny.7 mph70%29.93 "Hg10 mi
6:53 PM65 °FSunny.6 mph63%29.91 "Hg10 mi
5:53 PM67 °FSunny.10 mph59%29.90 "Hg10 mi
4:53 PM70 °FSunny.8 mph53%29.90 "Hg10 mi
3:53 PM72 °FSunny.6 mph48%29.89 "Hg10 mi
2:53 PM71 °FSunny.5 mph49%29.91 "Hg10 mi
1:53 PM71 °FPassing clouds.7 mph49%29.91 "Hg10 mi
1:01 PM70 °FMostly cloudy.5 mph53%29.92 "Hg10 mi
11:53 AM68 °FOvercast.8 mph57%29.92 "Hg10 mi
10:53 AM67 °FPartly sunny.7 mph61%29.91 "Hg10 mi
9:53 AM65 °FPartly sunny.No wind61%29.92 "Hg10 mi
8:53 AM64 °FScattered clouds.6 mph63%29.91 "Hg10 mi
7:53 AM61 °FScattered clouds.3 mph70%29.90 "Hg10 mi
6:53 AM59 °FPassing clouds.5 mph75%29.88 "Hg10 mi
Weather by CustomWeather, © 2016

See weather overviewHow to use our weather pages